Location: Piotrkow Trybunalski
(51.4000°N, 19.6830°E)
Time: 17:25:34
(UTC+02:00)

A-11 Canister half - Pass Details

Date: 13 February 2023
Orbit: 1512 x 1687 km, 47.2° (Epoch: 26 March)

Event Time Altitude Azimuth Distance (km) Brightness Sun altitude
Rises 05:35:29 0° 170° (S) 4,910 11.8 -13.6°
Reaches altitude 10° 05:41:31 10° 143° (SE) 3,898 11.7 -12.6°
Maximum altitude 05:44:49 12° 124° (ESE) 3,714 12.0 -12.1°
Drops below altitude 10° 05:48:04 10° 104° (ESE) 3,863 12.6 -11.6°
Sets 05:53:55 0° 77° (ENE) 4,812 13.1 -10.7°
